TimeMDT,TemperatureF,Dew PointF,Humidity,Sea Level PressureIn,VisibilityMPH,Wind Direction,Wind SpeedMPH,Gust SpeedMPH,PrecipitationIn,Events,Conditions,WindDirDegrees,DateUTC
12:53 AM,41.0,21.0,45,30.04,10.0,Calm,Calm,-,N/A,,Clear,0,2013-04-21 06:53:00
1:53 AM,37.9,21.0,51,30.05,10.0,Calm,Calm,-,N/A,,Clear,0,2013-04-21 07:53:00
2:53 AM,37.9,21.9,53,30.05,10.0,NW,4.6,-,N/A,,Clear,310,2013-04-21 08:53:00
3:53 AM,37.9,21.9,53,30.06,10.0,Calm,Calm,-,N/A,,Clear,0,2013-04-21 09:53:00
4:53 AM,33.1,21.0,61,30.08,10.0,Calm,Calm,-,N/A,,Clear,0,2013-04-21 10:53:00
5:53 AM,34.0,21.0,59,30.09,10.0,North,3.5,-,N/A,,Clear,360,2013-04-21 11:53:00
6:53 AM,30.0,19.9,66,30.13,10.0,ENE,3.5,-,N/A,,Clear,60,2013-04-21 12:53:00
7:53 AM,37.9,23.0,55,30.14,10.0,Calm,Calm,-,N/A,,Clear,0,2013-04-21 13:53:00
8:53 AM,44.1,24.1,45,30.14,10.0,Calm,Calm,-,N/A,,Clear,0,2013-04-21 14:53:00
9:53 AM,50.0,24.1,36,30.13,10.0,West,5.8,-,N/A,,Clear,270,2013-04-21 15:53:00
10:53 AM,55.0,21.0,27,30.12,10.0,West,6.9,-,N/A,,Clear,260,2013-04-21 16:53:00
11:53 AM,59.0,16.0,19,30.09,10.0,West,12.7,18.4,N/A,,Clear,280,2013-04-21 17:53:00
12:53 PM,63.0,8.1,11,30.07,10.0,West,15.0,25.3,N/A,,Clear,270,2013-04-21 18:53:00
1:53 PM,64.0,5.0,10,30.05,10.0,West,17.3,26.5,N/A,,Clear,280,2013-04-21 19:53:00
2:53 PM,66.0,1.9,8,30.02,10.0,WNW,15.0,27.6,N/A,,Clear,290,2013-04-21 20:53:00
3:53 PM,66.0,7.0,10,30.01,10.0,West,11.5,27.6,N/A,,Clear,270,2013-04-21 21:53:00
4:53 PM,66.9,7.0,10,29.99,10.0,WNW,13.8,28.8,N/A,,Clear,290,2013-04-21 22:53:00
5:53 PM,66.9,12.0,12,29.97,10.0,WNW,16.1,24.2,N/A,,Clear,290,2013-04-21 23:53:00
6:53 PM,64.9,14.0,14,29.99,10.0,NW,13.8,-,N/A,,Clear,310,2013-04-22 00:53:00
7:53 PM,60.1,14.0,16,29.98,10.0,WNW,5.8,-,N/A,,Clear,300,2013-04-22 01:53:00
8:53 PM,55.9,14.0,19,29.97,10.0,Calm,Calm,-,N/A,,Clear,0,2013-04-22 02:53:00
9:53 PM,48.0,14.0,26,29.99,10.0,Calm,Calm,-,N/A,,Clear,0,2013-04-22 03:53:00
10:53 PM,48.0,17.1,29,29.96,10.0,East,6.9,-,N/A,,Clear,80,2013-04-22 04:53:00
11:53 PM,44.1,15.1,31,29.96,10.0,NE,6.9,-,N/A,,Clear,40,2013-04-22 05:53:00